Time,TemperatureF,DewpointF,PressureIn,WindDirection,WindDirectionDegrees,WindSpeedMPH,WindSpeedGustMPH,Humidity,HourlyPrecipIn,Conditions,Clouds,dailyrainin,SoftwareType,DateUTC
2013-05-13 00:07:00,50.4,33.0,30.17,North,349,1.0,2.0,52,0.00,,,0.00,weatherlink.com 1.10,2013-05-13 05:07:00,
2013-05-13 00:22:00,49.6,34.0,30.17,NNW,345,1.0,1.0,55,0.00,,,0.00,weatherlink.com 1.10,2013-05-13 05:22:00,
2013-05-13 00:37:00,49.6,39.0,30.18,North,358,1.0,2.0,66,0.00,,,0.00,weatherlink.com 1.10,2013-05-13 05:37:00,
2013-05-13 00:52:00,49.3,38.0,30.17,North,6,1.0,2.0,66,0.00,,,0.00,weatherlink.com 1.10,2013-05-13 05:52:00,
2013-05-13 01:07:00,49.2,38.0,30.17,NNW,345,2.0,2.0,65,0.00,,,0.00,weatherlink.com 1.10,2013-05-13 06:07:00,
2013-05-13 01:22:00,49.3,37.0,30.17,NNW,345,1.0,2.0,63,0.00,,,0.00,weatherlink.com 1.10,2013-05-13 06:22:00,
2013-05-13 01:37:00,49.1,36.0,30.17,NNW,340,1.0,2.0,61,0.00,,,0.00,weatherlink.com 1.10,2013-05-13 06:37:00,
2013-05-13 01:52:00,49.5,32.0,30.17,NNE,12,2.0,2.0,51,0.00,,,0.00,weatherlink.com 1.10,2013-05-13 06:52:00,
2013-05-13 02:07:00,49.9,33.0,30.17,North,5,2.0,2.0,52,0.00,,,0.00,weatherlink.com 1.10,2013-05-13 07:07:00,
2013-05-13 02:22:00,49.4,36.0,30.17,NNW,345,1.0,2.0,61,0.00,,,0.00,weatherlink.com 1.10,2013-05-13 07:22:00,
2013-05-13 02:37:00,49.1,37.0,30.17,NNW,340,1.0,2.0,64,0.00,,,0.00,weatherlink.com 1.10,2013-05-13 07:37:00,
2013-05-13 02:52:00,49.4,36.0,30.17,NNW,338,1.0,2.0,60,0.00,,,0.00,weatherlink.com 1.10,2013-05-13 07:52:00,
2013-05-13 03:07:00,48.7,39.0,30.17,NNW,339,0.0,1.0,68,0.00,,,0.00,weatherlink.com 1.10,2013-05-13 08:07:00,
2013-05-13 03:22:00,48.1,41.0,30.17,NNW,338,1.0,2.0,75,0.00,,,0.00,weatherlink.com 1.10,2013-05-13 08:22:00,
2013-05-13 03:37:00,46.7,38.0,30.17,NNW,330,1.0,2.0,72,0.00,,,0.00,weatherlink.com 1.10,2013-05-13 08:37:00,
2013-05-13 03:52:00,46.4,39.0,30.17,NNW,329,1.0,2.0,76,0.00,,,0.00,weatherlink.com 1.10,2013-05-13 08:52:00,
2013-05-13 04:07:00,46.9,40.0,30.16,NNW,329,1.0,1.0,76,0.00,,,0.00,weatherlink.com 1.10,2013-05-13 09:07:00,
2013-05-13 04:22:00,46.6,42.0,30.16,NNW,327,1.0,3.0,83,0.00,,,0.00,weatherlink.com 1.10,2013-05-13 09:22:00,
2013-05-13 04:37:00,-999.0,-99.9,30.16,North,-999,-999.0,-999.0,-999,0.00,,,0.00,weatherlink.com 1.10,2013-05-13 09:37:00,
2013-05-13 04:53:00,-999.0,-99.9,30.16,North,-999,-999.0,-999.0,-999,0.00,,,0.00,weatherlink.com 1.10,2013-05-13 09:53:00,
2013-05-13 05:08:00,-999.0,-99.9,30.17,North,-999,-999.0,-999.0,-999,0.00,,,0.00,weatherlink.com 1.10,2013-05-13 10:08:00,
2013-05-13 05:23:00,-999.0,-99.9,30.16,North,-999,-999.0,-999.0,-999,0.00,,,0.00,weatherlink.com 1.10,2013-05-13 10:23:00,
2013-05-13 05:38:00,-999.0,-99.9,30.17,North,-999,-999.0,-999.0,-999,0.00,,,0.00,weatherlink.com 1.10,2013-05-13 10:38:00,
2013-05-13 05:53:00,-999.0,-99.9,30.17,North,-999,-999.0,-999.0,-999,0.00,,,0.00,weatherlink.com 1.10,2013-05-13 10:53:00,
2013-05-13 06:08:00,44.5,41.0,30.17,North,360,3.0,3.0,86,0.00,,,0.00,weatherlink.com 1.10,2013-05-13 11:08:00,
2013-05-13 06:23:00,43.8,41.0,30.18,North,11,3.0,5.0,88,0.00,,,0.00,weatherlink.com 1.10,2013-05-13 11:23:00,
2013-05-13 06:38:00,43.6,40.0,30.19,NNW,330,1.0,4.0,86,0.00,,,0.00,weatherlink.com 1.10,2013-05-13 11:38:00,
2013-05-13 06:53:00,44.4,39.0,30.19,NNW,338,2.0,5.0,82,0.00,,,0.00,weatherlink.com 1.10,2013-05-13 11:53:00,
2013-05-13 07:08:00,44.7,39.0,30.20,North,8,1.0,3.0,81,0.00,,,0.00,weatherlink.com 1.10,2013-05-13 12:08:00,
2013-05-13 07:23:00,46.4,38.0,30.20,North,358,2.0,3.0,73,0.00,,,0.00,weatherlink.com 1.10,2013-05-13 12:23:00,
2013-05-13 07:38:00,47.4,39.0,30.20,NNW,330,2.0,3.0,73,0.00,,,0.00,weatherlink.com 1.10,2013-05-13 12:38:00,
2013-05-13 07:53:00,48.5,39.0,30.21,NW,322,1.0,3.0,70,0.00,,,0.00,weatherlink.com 1.10,2013-05-13 12:53:00,
2013-05-13 08:08:00,49.7,40.0,30.21,NW,316,1.0,3.0,69,0.00,,,0.00,weatherlink.com 1.10,2013-05-13 13:08:00,
2013-05-13 08:23:00,51.2,41.0,30.21,North,352,1.0,4.0,67,0.00,,,0.00,weatherlink.com 1.10,2013-05-13 13:23:00,
2013-05-13 08:38:00,52.8,40.0,30.21,WNW,288,1.0,5.0,63,0.00,,,0.00,weatherlink.com 1.10,2013-05-13 13:38:00,
2013-05-13 08:53:00,54.1,39.0,30.21,North,6,1.0,5.0,57,0.00,,,0.00,weatherlink.com 1.10,2013-05-13 13:53:00,
2013-05-13 09:08:00,55.6,41.0,30.21,NW,304,2.0,7.0,58,0.00,,,0.00,weatherlink.com 1.10,2013-05-13 14:08:00,
2013-05-13 09:23:00,56.4,40.0,30.21,NW,316,2.0,6.0,55,0.00,,,0.00,weatherlink.com 1.10,2013-05-13 14:23:00,
2013-05-13 09:39:00,57.3,40.0,30.21,NW,318,2.0,5.0,53,0.00,,,0.00,weatherlink.com 1.10,2013-05-13 14:39:00,
2013-05-13 09:54:00,58.1,37.0,30.21,NE,39,3.0,7.0,45,0.00,,,0.00,weatherlink.com 1.10,2013-05-13 14:54:00,
2013-05-13 10:09:00,58.8,38.0,30.21,NNW,330,6.0,8.0,46,0.00,,,0.00,weatherlink.com 1.10,2013-05-13 15:09:00,
2013-05-13 10:24:00,59.1,39.0,30.21,NW,308,3.0,8.0,47,0.00,,,0.00,weatherlink.com 1.10,2013-05-13 15:24:00,
2013-05-13 10:39:00,60.1,39.0,30.21,NW,311,6.0,7.0,46,0.00,,,0.00,weatherlink.com 1.10,2013-05-13 15:39:00,
2013-05-13 10:54:00,60.6,40.0,30.21,WNW,293,2.0,8.0,47,0.00,,,0.00,weatherlink.com 1.10,2013-05-13 15:54:00,
2013-05-13 11:09:00,62.0,38.0,30.21,North,356,2.0,7.0,42,0.00,,,0.00,weatherlink.com 1.10,2013-05-13 16:09:00,
2013-05-13 11:24:00,62.2,33.0,30.21,NW,323,1.0,11.0,33,0.00,,,0.00,weatherlink.com 1.10,2013-05-13 16:24:00,
2013-05-13 11:39:00,62.7,31.0,30.20,West,278,2.0,7.0,31,0.00,,,0.00,weatherlink.com 1.10,2013-05-13 16:39:00,
2013-05-13 11:54:00,63.7,30.0,30.20,NW,304,5.0,7.0,28,0.00,,,0.00,weatherlink.com 1.10,2013-05-13 16:54:00,
2013-05-13 12:09:00,63.4,31.0,30.19,SSE,160,1.0,6.0,30,0.00,,,0.00,weatherlink.com 1.10,2013-05-13 17:09:00,
2013-05-13 12:24:00,64.3,33.0,30.19,NE,51,2.0,9.0,31,0.00,,,0.00,weatherlink.com 1.10,2013-05-13 17:24:00,
2013-05-13 12:39:00,64.6,34.0,30.19,NW,317,2.0,9.0,32,0.00,,,0.00,weatherlink.com 1.10,2013-05-13 17:39:00,
2013-05-13 12:54:00,65.9,36.0,30.18,NNW,345,2.0,6.0,33,0.00,,,0.00,weatherlink.com 1.10,2013-05-13 17:54:00,
2013-05-13 13:09:00,65.4,36.0,30.17,NW,306,4.0,6.0,34,0.00,,,0.00,weatherlink.com 1.10,2013-05-13 18:09:00,
2013-05-13 13:24:00,66.7,37.0,30.16,NE,46,2.0,7.0,34,0.00,,,0.00,weatherlink.com 1.10,2013-05-13 18:24:00,
2013-05-13 13:54:00,66.8,38.0,30.15,NNW,328,6.0,7.0,35,0.00,,,0.00,weatherlink.com 1.10,2013-05-13 18:54:00,
2013-05-13 14:09:00,67.5,39.0,30.14,NW,307,3.0,7.0,35,0.00,,,0.00,weatherlink.com 1.10,2013-05-13 19:09:00,
2013-05-13 14:24:00,67.8,38.0,30.13,NW,325,2.0,10.0,34,0.00,,,0.00,weatherlink.com 1.10,2013-05-13 19:24:00,
2013-05-13 14:39:00,68.9,39.0,30.13,NNW,343,4.0,8.0,34,0.00,,,0.00,weatherlink.com 1.10,2013-05-13 19:39:00,
2013-05-13 14:54:00,68.8,39.0,30.13,WNW,295,3.0,8.0,34,0.00,,,0.00,weatherlink.com 1.10,2013-05-13 19:54:00,
2013-05-13 15:09:00,69.6,38.0,30.12,NE,52,6.0,7.0,32,0.00,,,0.00,weatherlink.com 1.10,2013-05-13 20:09:00,
2013-05-13 15:24:00,69.3,38.0,30.11,NW,307,3.0,6.0,32,0.00,,,0.00,weatherlink.com 1.10,2013-05-13 20:24:00,
2013-05-13 15:39:00,69.5,34.0,30.11,SE,143,3.0,5.0,27,0.00,,,0.00,weatherlink.com 1.10,2013-05-13 20:39:00,
2013-05-13 15:55:00,70.2,38.0,30.09,West,259,1.0,7.0,31,0.00,,,0.00,weatherlink.com 1.10,2013-05-13 20:55:00,
2013-05-13 16:10:00,70.7,38.0,30.09,North,5,2.0,5.0,30,0.00,,,0.00,weatherlink.com 1.10,2013-05-13 21:10:00,
2013-05-13 16:25:00,70.9,36.0,30.09,NNW,333,5.0,6.0,28,0.00,,,0.00,weatherlink.com 1.10,2013-05-13 21:25:00,
2013-05-13 16:40:00,71.0,35.0,30.08,NNW,333,5.0,7.0,27,0.00,,,0.00,weatherlink.com 1.10,2013-05-13 21:40:00,
2013-05-13 16:55:00,70.7,35.0,30.07,WSW,256,3.0,11.0,27,0.00,,,0.00,weatherlink.com 1.10,2013-05-13 21:55:00,
2013-05-13 17:10:00,71.5,38.0,30.07,West,262,6.0,7.0,29,0.00,,,0.00,weatherlink.com 1.10,2013-05-13 22:10:00,
2013-05-13 17:25:00,70.8,39.0,30.07,WNW,294,1.0,8.0,31,0.00,,,0.00,weatherlink.com 1.10,2013-05-13 22:25:00,
2013-05-13 17:40:00,71.1,40.0,30.06,West,267,2.0,8.0,32,0.00,,,0.00,weatherlink.com 1.10,2013-05-13 22:40:00,
2013-05-13 17:55:00,71.2,38.0,30.05,West,266,6.0,7.0,30,0.00,,,0.00,weatherlink.com 1.10,2013-05-13 22:55:00,
2013-05-13 18:10:00,70.5,38.0,30.05,WNW,283,4.0,9.0,31,0.00,,,0.00,weatherlink.com 1.10,2013-05-13 23:10:00,
2013-05-13 18:25:00,69.9,39.0,30.05,WSW,238,5.0,7.0,33,0.00,,,0.00,weatherlink.com 1.10,2013-05-13 23:25:00,
2013-05-13 18:40:00,69.3,40.0,30.04,WSW,254,4.0,7.0,34,0.00,,,0.00,weatherlink.com 1.10,2013-05-13 23:40:00,
2013-05-13 18:55:00,68.8,39.0,30.04,WSW,257,6.0,6.0,34,0.00,,,0.00,weatherlink.com 1.10,2013-05-13 23:55:00,
2013-05-13 19:10:00,68.5,40.0,30.04,WSW,239,2.0,5.0,35,0.00,,,0.00,weatherlink.com 1.10,2013-05-14 00:10:00,
2013-05-13 19:25:00,68.3,40.0,30.03,SW,222,2.0,5.0,36,0.00,,,0.00,weatherlink.com 1.10,2013-05-14 00:25:00,
2013-05-13 19:40:00,67.9,41.0,30.03,WSW,246,2.0,4.0,37,0.00,,,0.00,weatherlink.com 1.10,2013-05-14 00:40:00,
2013-05-13 19:55:00,67.0,40.0,30.03,SW,235,5.0,6.0,38,0.00,,,0.00,weatherlink.com 1.10,2013-05-14 00:55:00,
2013-05-13 20:10:00,66.0,41.0,30.02,South,176,7.0,7.0,40,0.00,,,0.00,weatherlink.com 1.10,2013-05-14 01:10:00,
2013-05-13 20:25:00,65.3,40.0,30.02,SW,225,4.0,8.0,40,0.00,,,0.00,weatherlink.com 1.10,2013-05-14 01:25:00,
2013-05-13 20:40:00,64.5,41.0,30.02,SSW,198,2.0,6.0,42,0.00,,,0.00,weatherlink.com 1.10,2013-05-14 01:40:00,
2013-05-13 20:55:00,63.9,41.0,30.02,WSW,250,2.0,6.0,44,0.00,,,0.00,weatherlink.com 1.10,2013-05-14 01:55:00,
2013-05-13 21:10:00,63.3,42.0,30.02,SW,218,2.0,6.0,46,0.00,,,0.00,weatherlink.com 1.10,2013-05-14 02:10:00,
2013-05-13 21:25:00,62.6,43.0,30.02,SW,231,4.0,6.0,49,0.00,,,0.00,weatherlink.com 1.10,2013-05-14 02:25:00,
2013-05-13 21:40:00,62.7,44.0,30.02,WSW,256,5.0,10.0,50,0.00,,,0.00,weatherlink.com 1.10,2013-05-14 02:40:00,
2013-05-13 21:55:00,62.7,44.0,30.02,SW,232,9.0,10.0,51,0.00,,,0.00,weatherlink.com 1.10,2013-05-14 02:55:00,
2013-05-13 22:10:00,62.9,43.0,30.01,WSW,243,10.0,14.0,49,0.00,,,0.00,weatherlink.com 1.10,2013-05-14 03:10:00,
2013-05-13 22:25:00,62.6,44.0,30.01,WSW,250,9.0,13.0,50,0.00,,,0.00,weatherlink.com 1.10,2013-05-14 03:25:00,
2013-05-13 22:40:00,62.8,43.0,30.00,WSW,240,7.0,15.0,49,0.00,,,0.00,weatherlink.com 1.10,2013-05-14 03:40:00,
2013-05-13 22:55:00,62.9,43.0,30.00,West,266,8.0,14.0,49,0.00,,,0.00,weatherlink.com 1.10,2013-05-14 03:55:00,
2013-05-13 23:10:00,62.8,44.0,30.00,West,270,7.0,10.0,50,0.00,,,0.00,weatherlink.com 1.10,2013-05-14 04:10:00,
2013-05-13 23:25:00,62.6,44.0,29.99,WNW,297,2.0,10.0,51,0.00,,,0.00,weatherlink.com 1.10,2013-05-14 04:25:00,
2013-05-13 23:40:00,62.7,44.0,29.99,WNW,283,7.0,11.0,51,0.00,,,0.00,weatherlink.com 1.10,2013-05-14 04:40:00,
2013-05-13 23:55:00,63.2,45.0,29.98,WNW,300,5.0,11.0,51,0.00,,,0.00,weatherlink.com 1.10,2013-05-14 04:55:00,